Theta_e
305 305 305 306 306 307 307 307 306 306 306 307 307 308 308 308 309 313 317 316 318 321 326 329 326 327 328 330 330 329 329 330 331 331 331 330 327 324 322 322 322 322 322 322 321
303 304 304 304 305 305 306 306 306 306 307 306 306 307 308 309 312 315 315 313 315 318 326 327 328 327 330 330 329 328 327 328 328 330 331 329 328 327 322 323 322 322 321 319 319
302 301 302 303 303 304 304 305 305 305 305 305 306 306 307 308 317 316 316 314 314 317 323 326 327 328 329 329 328 326 327 326 327 328 328 327 326 326 323 324 324 323 323 321 320
306 306 306 303 300 300 301 304 304 305 305 305 305 306 307 315 314 323 318 319 315 321 322 325 326 328 328 329 328 327 324 326 327 327 326 326 326 324 322 324 323 323 323 322 322
307 306 306 304 301 299 299 299 301 302 303 304 305 306 311 316 313 315 321 319 320 321 320 324 326 327 327 328 327 326 325 325 327 325 325 324 324 323 323 323 322 322 322 323 323
308 307 306 306 304 302 300 298 299 301 303 304 304 305 314 313 313 312 315 318 318 322 320 322 326 326 326 327 326 325 325 326 326 324 323 323 323 322 323 322 323 322 323 323 322
307 307 307 307 306 305 303 300 299 299 302 303 303 311 313 313 313 315 317 321 318 320 323 321 324 325 325 326 326 326 326 326 324 323 324 322 323 323 324 323 323 323 323 322 322
308 307 307 307 307 307 305 301 299 299 300 301 306 315 314 312 312 313 313 320 323 321 321 322 323 325 325 326 325 324 325 327 327 323 323 322 325 324 324 323 324 324 323 322 322
310 308 307 306 305 305 305 303 301 299 300 306 317 318 315 313 313 313 314 315 316 320 321 323 323 325 326 327 327 326 327 329 329 326 324 323 325 324 323 323 324 324 324 322 322
307 308 308 307 306 305 304 304 303 307 318 318 320 319 316 315 314 316 315 313 315 316 325 325 326 326 327 328 329 327 327 327 328 327 324 325 325 323 323 324 325 325 324 323 323
304 305 306 308 307 305 305 306 312 319 319 316 318 314 315 314 315 317 317 314 318 323 325 326 327 328 327 328 327 326 327 327 327 326 325 326 325 324 324 324 325 325 325 324 324
303 304 304 306 308 306 306 308 310 307 312 315 317 317 315 316 317 317 319 317 319 323 324 327 327 327 327 327 326 326 327 328 327 326 325 325 325 325 324 325 326 326 327 325 324
303 303 304 305 308 307 307 307 306 307 313 313 313 316 316 317 318 318 320 318 319 322 324 327 326 327 327 327 327 327 328 328 328 327 325 325 326 325 324 325 325 325 326 326 325
303 302 303 306 307 307 307 305 306 306 314 315 314 314 315 315 317 317 320 319 321 322 324 325 325 327 327 328 327 328 327 327 327 327 326 325 327 325 324 323 324 326 327 326 325
300 303 303 306 308 308 306 305 305 309 318 318 318 317 315 316 315 316 318 321 321 322 325 327 327 327 328 327 326 327 326 326 326 326 327 326 327 325 323 324 324 324 327 327 326
299 303 303 304 307 308 307 306 308 318 318 316 318 318 317 316 316 317 317 320 322 322 324 326 326 327 327 325 325 325 326 326 326 326 329 326 326 323 322 323 324 326 329 327 325
299 300 304 304 306 307 306 307 316 317 317 317 318 319 318 317 317 319 318 318 320 324 326 325 326 326 326 326 325 325 327 328 330 329 328 326 324 324 323 323 325 327 330 328 325
299 298 304 304 303 305 307 309 316 316 317 316 317 319 320 319 318 318 319 318 319 323 325 326 326 327 326 325 326 326 327 328 329 329 328 325 326 323 324 328 329 330 330 328 325
300 299 304 305 303 304 309 311 313 316 317 317 316 319 320 320 319 318 319 318 319 322 324 326 326 325 326 325 325 326 327 326 327 327 328 326 325 325 325 326 330 330 328 327 325
301 301 303 305 305 304 309 313 310 313 315 316 317 318 321 320 319 320 320 319 318 320 324 325 328 325 326 324 324 326 325 327 327 330 331 326 326 325 324 324 332 332 329 327 325
301 304 303 305 305 305 310 310 310 311 313 316 317 318 318 321 320 320 320 319 319 319 322 325 327 327 325 327 325 325 327 326 327 327 329 330 327 326 324 327 330 334 331 328 326
300 304 304 305 306 305 309 310 308 309 309 310 314 318 318 319 321 321 320 320 318 319 322 324 325 328 326 325 324 325 325 327 328 329 327 327 327 326 326 328 333 336 332 328 326
302 303 304 305 307 307 308 309 309 308 308 310 312 316 318 319 321 321 320 319 318 319 322 325 325 326 325 328 327 325 325 325 327 328 329 329 328 327 328 332 333 336 332 328 327
303 303 304 303 305 307 306 308 309 308 308 307 309 311 316 319 320 321 321 320 318 319 326 328 325 326 328 328 326 327 324 325 327 329 329 328 327 328 328 330 332 335 332 329 327
302 303 303 309 305 308 306 307 308 310 307 308 309 311 314 319 318 319 321 321 319 322 324 328 329 324 323 323 325 325 325 324 327 327 328 326 326 326 326 328 330 333 333 330 327
302 305 302 305 305 306 306 306 306 307 308 308 309 310 313 318 320 319 319 321 321 322 322 326 326 324 324 322 323 323 324 325 326 326 326 326 326 326 326 326 329 333 333 331 329
299 301 303 305 306 307 307 307 306 306 307 308 308 309 311 316 315 316 317 318 319 323 325 327 325 326 325 322 322 325 323 325 326 326 326 326 326 325 325 328 329 333 332 331 330
Wind_Speed
15 17 16 16 16 15 16 16 17 16 16 16 18 19 17 17 18 10 15 12 14 12 14 13 11 12 13 11 8 5 10 11 12 12 11 4 11 4 3 7 7 7 6 2 9
18 18 18 19 18 16 17 17 17 17 17 18 18 18 18 19 17 22 21 18 20 25 19 18 15 15 12 13 8 10 11 15 8 10 14 16 9 14 6 6 10 9 4 7 11
18 18 19 19 20 18 19 17 17 16 15 16 16 17 17 14 11 6 8 21 26 27 22 21 14 16 15 11 11 13 14 14 13 13 16 17 11 9 10 10 10 9 11 12 12
17 17 17 17 18 20 21 20 19 18 17 18 16 16 14 4 7 3 13 9 18 24 21 22 17 18 16 16 15 15 16 16 13 10 9 7 6 8 12 11 4 6 5 14 14
20 20 20 21 20 20 21 21 19 19 18 18 16 16 7 8 11 6 10 3 10 22 26 21 19 20 19 16 15 14 17 15 12 11 8 3 9 9 11 7 6 6 11 14 12
20 20 20 20 21 21 22 22 21 20 19 18 18 14 4 16 12 13 17 14 12 21 26 27 19 21 15 17 13 13 11 14 10 9 6 7 4 4 8 3 9 11 13 13 13
18 19 20 20 22 23 23 23 22 21 19 18 17 7 9 24 6 5 8 11 14 22 18 29 23 16 17 12 14 12 13 12 13 10 5 5 9 10 9 5 11 13 12 12 12
17 18 19 21 23 24 25 25 22 21 20 18 14 7 11 13 18 27 26 13 7 16 18 22 22 17 11 5 8 10 13 14 12 8 5 7 11 13 3 10 14 14 13 13 14
19 17 18 18 21 23 25 24 21 21 17 10 6 9 14 5 16 26 21 24 21 13 11 10 22 15 14 14 14 14 14 15 9 9 4 10 14 10 4 10 12 13 14 14 13
19 17 18 20 22 24 27 21 11 3 4 7 6 6 12 11 13 10 17 25 13 17 11 13 13 16 17 16 16 14 15 9 12 7 9 11 15 13 15 13 12 13 14 14 15
20 20 20 19 20 23 25 7 5 6 11 12 11 15 2 7 7 11 11 21 13 21 16 21 16 23 25 21 17 11 11 13 10 7 10 14 13 14 16 14 12 13 14 16 15
20 18 19 17 17 20 16 5 2 4 10 20 26 20 26 4 6 13 17 16 20 24 22 17 23 24 22 19 17 14 16 16 8 10 7 13 16 16 16 12 10 12 14 15 15
19 18 17 17 15 15 9 7 2 3 8 14 22 26 25 20 10 17 21 22 23 26 28 24 23 23 21 18 19 18 18 14 11 10 12 12 17 8 8 8 9 10 11 13 16
17 17 15 12 11 6 7 7 3 4 7 11 11 13 30 21 17 25 26 20 18 29 28 23 23 24 19 24 20 20 15 14 13 12 11 2 13 11 9 9 9 8 10 12 15
18 14 14 12 8 6 4 1 5 4 7 6 13 9 20 29 10 28 26 21 21 21 25 25 24 24 25 24 21 18 13 13 15 12 11 15 7 8 5 8 6 7 7 10 14
16 13 12 11 14 13 6 7 4 7 13 10 11 17 20 29 17 14 28 21 18 21 23 25 17 20 22 17 16 16 8 10 8 11 11 15 9 9 3 4 9 3 3 7 14
16 13 13 11 5 12 8 7 8 14 6 11 12 19 24 19 29 18 29 30 20 23 24 25 23 22 16 20 13 18 14 10 10 10 11 2 6 10 9 8 8 9 8 8 14
15 14 14 17 15 7 9 10 17 21 25 6 12 20 24 19 26 25 24 29 29 26 17 23 24 26 18 23 16 21 18 11 11 11 11 7 6 4 0 3 5 5 4 10 16
12 14 16 15 18 18 8 16 19 25 15 21 11 20 18 21 12 26 28 31 33 30 21 23 24 28 24 21 22 16 18 18 16 14 8 11 5 11 5 4 4 0 4 12 16
11 11 17 17 18 10 8 30 20 19 5 19 27 19 23 24 17 25 24 24 32 33 26 11 21 16 23 21 23 20 16 10 10 14 14 8 6 7 6 3 4 5 8 13 16
11 4 6 18 18 4 10 31 28 21 4 11 22 25 22 21 23 27 19 13 33 33 27 16 15 21 17 22 22 13 16 14 13 13 12 10 6 5 2 1 3 5 11 15 17
5 4 7 23 7 3 9 29 31 21 19 19 9 17 20 20 24 24 24 23 21 29 35 31 13 14 24 20 23 23 22 21 13 16 10 10 9 9 6 4 4 3 10 15 17
3 3 5 20 9 12 13 27 24 27 16 13 13 6 17 17 15 25 19 13 15 28 28 25 15 15 15 10 14 23 21 21 20 16 17 11 11 7 6 7 6 5 12 14 18
3 3 3 3 5 17 24 21 18 15 22 19 18 19 16 16 15 11 20 16 14 26 15 23 18 27 22 21 18 21 21 23 21 16 16 16 16 9 9 10 8 8 10 14 18
3 5 3 3 4 16 10 11 16 14 18 17 9 19 15 12 19 13 16 16 14 18 22 20 25 24 26 20 22 20 22 24 24 23 20 16 16 12 10 11 11 10 11 14 17
3 3 2 3 2 7 14 18 22 16 18 21 24 21 13 12 11 18 13 14 19 14 24 21 17 22 21 26 22 21 25 24 24 25 22 20 19 12 12 11 11 10 14 16 19
3 3 2 2 3 5 4 11 18 19 18 21 21 23 19 10 5 7 6 3 1 13 18 19 16 14 22 22 21 23 27 25 23 24 20 21 19 17 13 11 13 14 15 16 18
Wind_Direction
328 330 330 328 333 326 330 333 332 338 336 332 331 331 326 325 320 284 247 213 203 170 162 165 180 189 194 219 228 249 262 262 268 277 295 288 283 144 319 241 219 196 261 46 162
321 321 321 324 323 320 316 318 321 327 329 332 331 327 327 334 314 271 255 228 212 192 175 187 192 189 198 218 204 228 251 263 284 296 285 295 291 301 229 213 229 218 188 181 179
323 318 316 312 312 312 310 312 316 319 319 315 318 322 331 336 279 258 227 228 212 195 200 200 203 196 222 214 207 230 255 278 275 273 295 291 287 265 255 266 252 241 200 195 193
328 326 322 317 312 314 313 309 305 309 307 309 318 322 331 291 260 82 100 99 200 191 198 197 198 203 218 212 222 243 251 262 271 297 284 269 276 252 247 282 348 239 201 191 196
333 330 326 326 320 313 308 306 305 300 303 308 314 322 347 250 247 251 227 78 155 193 205 202 200 206 218 220 233 234 267 255 270 268 245 253 247 277 279 275 234 225 188 198 196
319 329 331 326 321 315 308 308 303 299 301 305 310 314 269 255 254 249 246 238 222 201 208 207 211 215 232 234 233 252 267 257 262 236 202 240 256 267 293 235 215 211 206 201 198
308 311 319 323 321 320 318 312 306 301 296 296 298 281 248 241 250 241 228 234 224 208 211 216 214 200 221 225 235 253 254 243 235 215 234 260 252 244 279 198 227 221 214 203 201
301 306 309 314 316 318 320 313 305 297 289 289 286 211 253 257 256 250 245 239 194 199 223 211 217 216 219 172 198 232 231 232 180 205 172 228 274 276 212 210 230 222 215 205 202
295 294 306 313 321 323 317 313 303 291 284 271 167 223 259 222 230 240 225 217 217 201 210 198 199 210 206 219 232 217 242 219 227 208 215 222 287 296 274 244 255 232 220 211 202
302 302 296 301 313 321 318 317 305 245 124 164 237 223 243 227 222 217 205 205 194 197 184 193 191 200 218 211 226 225 221 233 253 203 231 265 273 279 280 242 252 253 226 217 211
304 300 303 295 304 317 329 329 213 191 208 215 193 224 82 241 228 205 173 191 192 183 185 188 202 206 207 217 235 269 251 249 252 271 268 279 289 287 284 270 255 250 225 219 212
305 300 294 297 299 307 313 275 31 349 288 236 250 236 256 291 235 213 177 181 190 194 196 187 215 209 217 211 223 230 240 245 248 268 273 286 288 293 283 270 264 243 224 216 204
301 304 300 289 297 293 264 271 303 312 258 252 227 227 224 211 231 200 191 206 194 198 199 204 212 214 213 209 213 226 239 242 258 300 262 261 276 264 273 242 246 244 234 210 203
299 296 296 285 281 252 250 182 276 273 272 246 204 232 214 218 231 228 198 196 203 204 204 215 217 201 202 213 213 227 219 258 261 265 282 3 293 282 274 275 256 239 217 210 198
293 289 285 248 316 247 84 238 305 212 268 163 178 155 188 187 159 202 197 203 215 203 201 210 208 192 209 214 208 238 233 233 257 267 283 262 254 288 242 279 292 279 196 199 192
275 275 273 279 232 250 269 289 225 212 237 193 160 182 175 199 211 167 189 206 218 216 210 225 210 203 214 216 217 225 206 227 245 256 248 255 248 277 273 312 318 318 117 185 181
269 267 253 224 232 249 249 222 200 224 160 186 182 180 181 186 206 181 187 195 195 196 204 214 202 208 211 207 205 219 214 225 221 220 250 154 246 258 307 312 322 306 316 170 175
267 259 252 226 239 249 232 215 219 223 217 111 189 183 191 174 204 193 192 197 207 201 194 202 207 191 200 208 192 203 208 230 225 244 251 154 252 223 317 313 289 317 324 156 171
253 246 243 222 223 218 246 213 220 221 216 222 197 191 197 190 190 199 209 205 199 200 211 197 209 200 204 209 214 190 219 226 255 267 272 273 194 256 254 250 212 203 138 162 168
220 231 239 210 200 180 224 235 228 233 294 217 220 199 196 193 200 192 193 213 207 210 212 196 208 189 198 207 211 218 202 201 223 241 238 237 234 268 227 346 99 170 168 168 168
197 223 209 192 170 207 215 225 235 268 356 298 234 233 223 193 204 194 199 192 204 198 208 185 208 187 189 204 200 190 220 215 250 226 235 243 254 107 273 203 338 167 171 173 176
206 214 187 162 191 221 229 228 242 293 317 283 300 275 226 223 203 200 216 205 196 191 198 201 198 183 209 198 215 201 214 207 222 214 244 274 258 146 249 252 281 193 171 178 178
209 213 211 181 210 220 244 243 248 250 268 317 286 324 268 229 228 216 209 198 190 194 198 191 210 208 193 192 216 225 212 220 219 245 251 234 241 161 193 222 222 194 174 176 181
156 219 205 252 265 249 233 243 243 253 256 270 274 293 266 246 232 217 211 195 200 195 186 195 200 209 210 199 191 207 223 217 218 223 234 239 252 194 208 223 197 192 182 180 183
227 223 282 175 229 223 260 245 244 228 233 255 277 245 284 243 219 216 210 179 202 194 188 192 210 212 226 217 202 210 214 218 218 224 234 235 241 234 236 217 229 192 186 180 185
169 236 216 216 150 219 235 241 248 235 238 247 237 270 257 252 304 218 200 201 182 187 192 192 216 221 218 222 221 214 218 215 218 224 228 242 251 242 235 255 207 198 189 189 190
161 225 233 251 204 240 272 253 250 245 238 244 246 240 255 246 314 329 323 301 55 200 180 188 206 206 221 217 225 232 219 216 219 226 228 233 238 243 235 232 226 205 200 198 193